Regional Weather Roundup
Issued by NWS

Home | Current Version | Previous Version | Text Only | Print | Product List | Glossary Off
Versions: 1 2 3 4 5 6 7 8 9 10 11 12 13 14 15 16 17 18 19 20 21 22 23 24 25 26 27 28 29 30 31 32 33 34 35 36 37 38 39 40 41 42 43 44 45 46 47 48 49 50

909
ASUS45 KBOU 260407
RWRCO

WEATHER ROUNDUP FOR COLORADO
NATIONAL WEATHER SERVICE DENVER/BOULDER CO
1000 PM MDT THU AUG 25 2016

NOTE: "FAIR" INDICATES FEW OR NO CLOUDS BELOW 12000 FEET WITH NO
SIGNIFICANT WEATHER AND/OR OBSTRUCTIONS TO VISIBILITY.

COZ001>005-013-030-031-260500-
...NORTHWEST COLORADO...

CITY           SKY/WX    TMP DP  RH WIND       PRES   REMARKS
CRAIG          MOCLDY    57  39  51 SE5       30.23R
HAYDEN         MOCLDY    57  34  41 SE10      30.25S
MEEKER         FAIR      54  42  64 E8        30.26R
MOUNT WERNER   NOT AVBL
STEAMBOAT SPGS CLOUDY    57  37  47 E12       30.28S
WALDEN         FAIR      54  32  43 SW12      30.32R
$$

COZ006>008-011-260500-
...WEST CENTRAL VALLEYS...

CITY           SKY/WX    TMP DP  RH WIND       PRES   REMARKS
GRAND JUNCTION FAIR      57  51  80 E12       30.22R
MONTROSE       CLOUDY    56  48  74 SE9       30.32R
EAGLE          CLOUDY    48  46  93 N6        30.37S
RIFLE          FAIR      52  51  97 N3        30.29S
DELTA          NOT AVBL
NUCLA          DRIZZLE   54  50  87 E9        30.36R
$$

COZ017>023-064>068-260500-
...SOUTHWEST COLORADO...

CITY           SKY/WX    TMP DP  RH WIND       PRES   REMARKS
DURANGO        FAIR      56  32  40 CALM      30.29R
CORTEZ         CLOUDY    55  50  83 E9        30.29F
PAGOSA SPRINGS LGT RAIN  57  45  65 SW12      30.35R
TELLURIDE      HVY RAIN  44  41  89 S10G17    30.51R
WOLF CREEK PAS FAIR      39  32  75 CALM      30.58S
$$

COZ009-010-012-014-032>034-037-058>063-260500-
...CENTRAL COLORADO...

CITY           SKY/WX    TMP DP  RH WIND       PRES   REMARKS
ASPEN          LGT RAIN  46  40  79 SE8       30.40S
BUENA VISTA    DRIZZLE   50  42  72 NW13G20   30.38R
COPPER MTN     LGT SNOW  37  34  87 MISG      30.57S VSB 1
BERTHOUD PASS  HAZE      32  18  55 E8        30.57F VSB<1/4 WCI  25
COTTONWOOD PAS LGT RAIN  46  41  81 SE7       30.47R
GUNNISON       CLOUDY    52  39  62 CALM      30.42R
KREMMLING      DRIZZLE   52  37  58 CALM      30.36R
LEADVILLE      LGT RAIN  38  37  97 N8        30.48R
MONARCH PASS   FOG       36  36 100 W20       30.66S VSB 1/4
SALIDA         MOCLDY    55  44  66 SE5       30.42R
SUNLIGHT       FOG       37  37 100 W8        30.52S VSB 1
WILKERSON PASS MOCLDY    37  34  87 SW5       30.56R
$$

COZ069>075-260500-
...SAN LUIS VALLEY/SANGRE DE CRISTO MOUNTAINS...

CITY           SKY/WX    TMP DP  RH WIND       PRES   REMARKS
ALAMOSA        FAIR      48  41  76 NW5       30.31R
LA VETA PASS   FOG       41  39  93 NE12      30.48S VSB 1/2
SAGUACHE       FAIR      48  45  87 N8        30.35S
$$

COZ035-036-038>040-260500-
...NORTHERN COLORADO FRONT RANGE...

CITY           SKY/WX    TMP DP  RH WIND       PRES   REMARKS
DENVER INTL AP MOCLDY    50  48  93 SE8       30.24S
DMNS CITY PARK   N/A     57  51  80 E9        30.23F
AURORA         MOCLDY    53  50  90 S6        30.25S
FRONT RANGE AP NOT AVBL
ERIE MUNI ARPT FAIR      55  49  82 CALM      30.21F
BOULDER MUN AP FAIR      55  50  82 NW3       30.22F
CENTENNIAL     MOCLDY    52  46  80 S7        30.26R
BROOMFIELD     NOT AVBL
FORT COLLINS   FAIR      55  48  76 CALM      30.22S
LONGMONT       FAIR      56  51  84 CALM      30.23F
$$

COZ041-046-047-076>085-087-088-260500-
...PIKES PEAK/PALMER DIVIDE AND SOUTHERN FOOTHILLS...

CITY           SKY/WX    TMP DP  RH WIND       PRES   REMARKS
COLO. SPRINGS  FAIR      50  44  80 NW3       30.30R
A. F. ACADEMY  FAIR      47  46  95 N9        30.31R
SCHRIEVER AFB  NOT AVBL
ELLICOTT       FAIR     N/A N/A N/A E7        30.29R
FALCON         FAIR      49  44  84 CALM      30.32S
FORT CARSON    MOCLDY    52  45  77 NW6       30.27R
LIMON          FAIR      56  49  77 S3        30.26R
MONUMENT HILL  FAIR      45  43  93 SW6       30.33R
TRINIDAD       MOCLDY    56  50  80 W8        30.30R
$$

COZ042>045-048>051-090-091-260500-
...NORTHEAST COLORADO...

CITY           SKY/WX    TMP DP  RH WIND       PRES   REMARKS
GREELEY ARPT   FAIR      55  48  76 CALM      30.22F
AKRON          CLOUDY    62  47  57 SE9       30.21F
BURLINGTON     FAIR      60  52  74 SE9       30.23R
WRAY           NOT AVBL
STERLING       FAIR      63  48  59 SE3       30.17F
HOLYOKE        FAIR      61  48  63 SE7       30.20S
FORT MORGAN    MOCLDY    60  49  68 SE6       30.19S
$$

COZ086-089-092>099-260500-
...SOUTHEAST COLORADO...

CITY           SKY/WX    TMP DP  RH WIND       PRES   REMARKS
PUEBLO         FAIR      61  54  77 S6        30.24R
LA JUNTA       LGT RAIN  65  59  81 SE8       30.25R
LAMAR          FAIR      61  57  87 S6        30.19R
SPRINGFIELD      N/A     59  58  96 SE3       30.22R
$$




USA.gov is the U.S. government's official web portal to all federal, state and local government web resources and services.